STARLINK-31663, 59576

Orbit data source: Space-Track

STARLINK-31663, 59576 is a payload satellite owned by SpaceX/Seattle (US) in LEO that was launched on Tue, 23 Apr 2024 UTC via an FALCON 9 launch vehicle from the Air Force Eastern Test Range (AFETR). Payload-class satellites include a variety of spacecraft equipped with specific instruments for various scientific and technological missions. These include communications satellites like Starlink; space stations such as the ISS; scientific satellites like the Hubble; Earth observation satellites from companies like Planet Labs, Umbra, and HawkEye 360; GPS; miniature CubeSats for education and research; and military/defense satellites.

Loading next visibility...
Identifier
59576, 2024-076N
Orbit
LEO
Last TLE update
1 day ago
Origin
Manufacturer
SpaceX/Seattle
Mission
Operational spacecraft
Bus & Motor
STARLINK V2M, Unknown motor
Mass
730 kg wet, ~700 kg dry
Launch date (UTC)
2024-04-23 (1 year ago)
Launch vehicle
FALCON 9
Launch site
Air Force Eastern Test Range (AFETR)
Object type
Payload
Rocket body
Debris
Shape & HBR
Unknown
Radar Cross Section
Large (>1 m²)

Expand to show TLE details & history

TLE from 1 day ago
0 STARLINK-31663
1 59576U 24076N   25185.77085404 -.00000643  00000-0 -13840-4 0  9992
2 59576  43.0013 329.3761 0000914 296.6687  63.4071 15.27577762 68581
Epoch: 2025-07-04T18:30Z
TLE epoch observation values (Epoch: 2025-07-04T18:30:01.789Z)
Latitude
Longitude
128.85017°
Altitude
482.551 km
Speed
7.626 km/s
True Right ascension
21h 57m 30s
True Declination
0° 00' 00"
Sunlit
Object was in full shadow at epoch
Visualization orbit readout
Latitude
29.0838°
Longitude
-93.21048°
Altitude
484.103 km
Speed
7.627 km/s
Apparent Right ascension
09h 23m 03s
Apparent Declination
-28° 23' 19"
Sunlit
Object is in daylight
Visualization observer readout
Local Sidereal Time
06:33:09
Azimuth
142.744° SSE
Elevation
11.106°
Doppler factor
1
Orbital elements
Apogee altitude
485.628 km
Perigee altitude
484.373 km
Semi-major axis
6,863.138 km
Eccentricity
0.00009
Inclination
43.0013°
RAAN
329.3761°
Arg. of periapsis
296.6687°
True anomaly
Unknown
Mean anomaly
63.4071°
Eccentric anomaly
Unknown
Mean motion
3.81732 °/min
Orbital period
94.31 mins
BSTAR
-0.00001384
Loading maneuver chart data...
Loading SW <> Apogee altitude chart data...
Loading historical data...
Loading historical data...
Loading historical data...
Loading historical data...
Loading historical data...
Loading historical data...
Loading historical data...

STARLINK-31663 Visibility forecast

Observer location: undefined°, undefined°

Span
Click to sort rows by Start time (UTC) header in descending order
Start Az.
Max El. time (UTC)
Max El. Az.
Max El.
End time (UTC)
End Az.
5 mins2025-07-06 13:07:35.753Z234.714° WSW2025-07-06 13:09:35.753Z136.75° SSE42.875°2025-07-06 13:12:35.753Z75.325° E
5 mins2025-07-06 14:46:35.753Z287.41° WNW2025-07-06 14:48:35.753Z2.016° NNE38.723°2025-07-06 14:51:35.753Z71.081° E
5 mins2025-07-06 16:25:35.753Z294.693° NW2025-07-06 16:27:35.753Z359.542° N42.615°2025-07-06 16:30:35.753Z94.552° ESE
5 mins2025-07-06 18:04:35.753Z264.125° W2025-07-06 18:06:35.753Z207.406° SW31.105°2025-07-06 18:09:35.753Z143.885° SSE
|